Theta_e
334 334 334 334 334 333 333 334 333 335 336 338 338 339 340 342 343 345 347 347 346 346 346 345 344 346 348 346 344 343 344 344 343 343 343 343 344 343 343 344 344 343 345 344 341 340 342 345 347 350 351 350 349 348 348 350 350 350 350 348 345 345 343 344 347 346 347 347 347 347 347 346 343 342 343 344 344 344 345 345 345 343 338 335 334
337 336 335 335 334 332 332 333 334 334 335 336 336 336 338 339 341 344 347 348 349 348 347 345 343 343 343 342 342 342 342 343 344 344 343 343 343 343 343 345 344 343 344 344 342 341 341 343 346 349 352 352 351 350 349 350 351 350 351 350 347 345 343 341 341 343 344 345 343 341 341 341 338 337 338 339 340 342 341 339 338 336 333 332 334
344 340 338 337 336 335 333 333 334 334 334 335 335 335 335 337 339 342 344 348 350 351 350 348 345 343 342 339 339 339 340 342 342 343 344 343 343 343 343 344 344 343 343 344 343 342 342 343 344 346 350 351 350 350 349 350 351 351 351 351 351 349 346 344 343 341 341 342 339 336 335 336 334 333 334 334 336 337 336 332 330 329 331 333 334
350 347 344 342 341 341 337 335 337 338 336 333 333 334 334 337 341 342 341 344 348 350 351 350 348 347 345 341 338 337 337 338 340 341 343 343 343 343 343 343 343 343 343 344 344 343 343 343 343 345 347 348 346 345 345 347 350 351 351 351 351 351 351 350 349 347 345 341 337 335 337 337 336 335 335 334 333 332 331 330 329 330 332 333 334
353 351 351 349 348 348 345 339 338 344 346 341 336 334 334 339 345 346 344 342 344 347 349 350 350 349 347 345 343 339 337 336 337 337 338 340 342 342 343 343 343 343 342 343 343 343 343 342 342 344 346 347 345 342 342 344 346 349 351 351 350 351 352 352 351 351 349 347 344 343 343 342 340 337 336 337 334 331 329 329 330 331 331 331 336
355 354 355 355 354 353 352 347 341 343 350 350 346 341 339 344 349 350 348 345 344 345 347 348 348 347 346 345 345 342 340 337 336 335 336 337 339 340 341 341 342 341 341 342 342 342 342 342 342 343 344 344 344 342 341 342 343 345 348 350 351 351 351 351 351 350 350 350 349 348 347 346 343 339 337 337 335 331 329 329 330 330 331 334 337
356 357 357 357 357 355 354 353 347 342 344 349 351 349 346 348 352 352 351 350 348 347 348 348 348 346 345 344 343 342 341 339 338 336 336 337 338 338 339 339 340 340 340 340 339 340 340 341 341 342 341 341 340 341 341 341 342 342 343 346 349 351 351 351 350 350 350 350 350 349 348 345 343 339 336 335 334 331 331 332 331 330 331 335 338
353 354 356 356 356 355 354 353 352 349 345 345 348 351 350 350 352 353 352 351 349 349 348 348 347 347 346 346 344 343 342 341 339 337 336 336 336 336 336 337 338 339 339 338 338 338 338 339 340 339 339 339 338 339 340 340 340 340 340 341 344 346 347 348 349 349 348 348 347 345 344 342 339 337 334 333 332 332 332 333 332 330 330 333 336
352 351 352 353 353 354 353 352 352 351 350 347 346 351 353 352 352 353 352 350 350 350 349 349 347 346 345 346 346 346 345 343 340 337 336 335 334 334 334 335 335 336 337 337 337 338 337 337 338 338 339 338 337 337 338 340 341 341 341 342 342 342 342 342 343 343 343 344 343 342 343 342 337 334 332 330 330 329 329 329 330 330 330 332 332
352 351 350 350 351 351 352 352 352 351 351 349 346 348 352 353 352 352 351 350 350 349 350 350 349 347 345 344 346 346 347 346 343 340 338 336 334 333 332 333 333 334 335 336 336 336 336 336 336 336 336 336 334 334 336 341 344 345 345 345 345 344 343 342 342 340 341 341 340 339 341 338 332 329 328 327 327 327 326 326 326 326 328 329 329
352 351 350 350 350 350 350 351 351 351 350 349 346 345 347 352 353 352 349 349 348 349 348 349 350 349 348 346 345 345 345 345 345 344 343 341 339 337 334 333 332 332 333 334 334 334 334 334 334 334 333 332 331 331 333 337 342 345 346 346 346 346 345 345 343 341 340 340 338 337 338 336 330 328 328 327 326 326 326 326 326 325 325 327 328
351 351 351 351 351 351 351 351 351 351 351 350 349 349 350 351 353 352 350 348 347 347 347 347 348 349 349 348 346 345 345 344 344 344 345 344 343 342 341 338 335 333 331 330 331 331 332 331 332 332 332 331 330 330 329 332 338 343 344 344 344 343 343 343 343 342 341 341 340 339 338 337 335 332 330 329 329 330 330 329 328 328 327 327 327
348 348 349 350 351 351 351 352 352 352 352 352 352 352 352 352 352 352 350 349 347 346 346 347 347 347 348 349 348 347 346 345 344 344 344 344 345 344 344 343 341 339 336 333 331 330 330 330 330 330 330 330 330 330 330 330 334 338 342 341 340 339 338 340 340 341 341 341 341 340 339 339 338 336 333 333 334 334 332 331 332 334 334 331 328
342 342 345 347 348 350 350 351 352 352 353 353 353 353 353 353 352 352 351 349 348 347 346 347 347 348 348 349 348 348 347 346 345 345 344 344 344 345 346 346 344 343 342 340 338 334 331 329 329 328 328 329 329 330 331 332 332 333 335 336 336 335 338 339 340 341 342 342 342 341 340 339 338 335 334 335 336 335 333 333 336 339 339 336 332
334 336 340 343 344 346 348 349 350 351 351 351 352 353 353 353 353 352 352 351 349 348 347 346 347 349 349 348 348 348 347 346 345 346 346 345 344 344 346 346 347 346 345 345 344 341 338 335 333 331 329 328 328 329 331 332 333 334 334 334 333 333 336 338 339 339 339 339 339 338 336 335 334 333 333 334 336 335 334 336 340 343 342 339 338
324 328 332 337 340 342 344 345 347 348 349 349 350 351 352 352 352 352 353 353 352 350 349 348 347 348 349 348 347 348 348 347 346 346 346 346 347 347 346 345 345 346 346 347 346 345 343 342 340 338 335 333 330 330 330 330 332 334 334 334 334 332 332 332 332 333 332 332 332 331 331 331 332 332 333 334 335 335 335 336 339 342 344 344 345
319 320 323 327 331 334 337 340 343 344 346 347 347 348 350 351 351 352 352 353 353 353 352 350 350 350 350 349 347 346 346 346 347 347 346 345 346 347 346 345 344 344 344 345 345 346 345 345 344 343 341 340 337 336 335 334 333 334 333 334 334 334 333 331 331 331 331 330 331 331 332 333 334 334 335 336 336 336 338 338 336 337 342 344 344
318 318 319 320 322 324 328 333 339 342 343 344 345 346 347 348 349 350 351 352 353 353 353 353 353 351 351 350 349 348 346 346 348 349 348 347 346 345 345 345 345 344 344 344 344 344 344 345 345 344 344 343 341 341 341 340 339 338 337 336 336 336 336 335 335 336 336 337 338 339 340 341 341 341 341 341 340 339 340 339 336 337 340 341 340
319 317 319 319 319 319 321 326 332 337 339 341 342 343 344 346 347 348 349 350 351 352 352 353 353 353 352 351 350 350 349 348 348 347 348 349 349 348 347 347 348 348 347 348 348 346 345 344 344 344 344 344 343 343 342 343 343 342 342 341 339 339 340 340 341 342 342 343 344 345 345 346 347 346 347 347 347 346 344 342 339 338 338 337 337
320 317 317 319 320 319 318 319 322 326 329 331 333 333 335 339 342 345 346 347 348 349 350 350 351 352 353 352 352 352 352 350 349 349 349 350 352 352 352 352 352 352 352 352 353 352 351 349 347 347 346 346 346 345 344 344 344 344 344 343 343 344 345 344 344 345 345 346 346 347 347 348 349 349 350 350 350 349 348 347 344 342 339 337 336
319 315 314 317 319 320 319 317 317 318 320 322 323 322 324 331 337 340 343 346 347 348 348 349 350 350 351 352 352 353 354 353 352 351 351 351 351 352 353 353 354 354 354 354 354 353 353 353 352 351 350 350 350 350 349 347 346 346 346 346 347 347 347 347 347 348 347 347 348 349 349 350 350 351 352 352 352 351 350 349 349 347 345 343 340
315 314 314 315 317 319 319 317 315 316 317 318 319 319 323 330 335 338 341 343 345 346 347 348 348 349 350 350 351 351 352 353 353 353 352 351 351 351 352 352 353 353 354 353 353 353 353 354 355 355 354 354 354 353 353 352 350 349 349 349 349 349 349 349 349 349 349 349 350 350 351 352 353 353 353 353 352 353 352 352 351 350 349 348 346
311 313 316 317 316 316 316 315 314 314 315 316 317 318 321 327 332 336 339 341 343 344 345 346 347 348 349 350 350 351 351 352 352 352 352 352 352 351 351 351 352 353 353 353 352 353 353 353 354 355 355 355 356 356 355 355 354 352 352 352 351 351 350 350 351 351 352 352 353 354 354 354 354 354 355 354 354 354 354 354 354 353 352 351 349
310 312 316 317 316 314 313 312 312 312 314 316 317 318 320 323 326 330 333 335 336 338 339 341 341 343 344 347 349 350 351 351 351 351 351 351 352 352 352 352 352 353 353 353 354 353 353 352 353 353 353 354 355 355 355 355 355 355 354 353 353 353 352 352 353 353 354 355 355 356 356 356 355 355 355 355 355 355 356 356 356 355 354 353 351
311 311 312 314 316 315 312 310 310 311 314 317 319 321 322 322 320 321 323 324 324 325 326 328 330 333 336 339 343 346 349 350 351 351 351 352 353 353 353 352 352 353 353 353 354 354 354 354 354 353 353 353 353 353 353 354 355 355 355 354 354 354 354 354 354 355 355 356 356 357 356 356 356 356 356 356 357 357 357 356 355 355 355 355 354
313 312 311 311 312 313 313 313 312 313 317 320 321 324 326 325 320 317 317 316 316 317 319 321 324 329 333 335 337 340 343 345 348 350 351 352 353 353 353 353 352 353 352 353 353 353 354 354 354 354 354 354 353 352 352 352 353 355 355 355 354 354 354 354 354 355 355 356 356 357 357 357 357 357 357 357 357 357 356 355 355 354 354 355 355
313 312 311 311 310 310 315 319 319 319 321 321 321 323 326 325 321 317 315 314 314 315 317 319 322 326 331 332 332 333 334 335 338 341 345 348 350 351 352 353 352 353 352 353 353 353 353 353 353 353 353 353 353 353 352 352 352 353 354 354 354 354 354 354 354 354 354 355 355 356 355 355 355 356 356 356 357 355 355 355 355 354 354 355 356
310 310 310 310 310 313 319 323 323 324 325 324 322 323 324 323 320 317 315 315 316 316 317 318 321 324 327 329 329 329 329 329 330 331 334 338 342 345 347 348 350 351 352 352 352 352 352 352 352 352 352 353 353 353 353 354 354 354 355 355 355 355 354 354 354 354 354 354 354 355 354 354 355 356 356 356 356 355 355 355 355 354 354 355 356
308 308 309 309 310 314 321 325 325 325 325 326 325 325 324 321 318 316 316 317 319 320 319 318 319 321 324 326 328 328 328 328 327 328 328 330 333 335 338 340 343 347 350 352 352 352 352 353 352 353 352 353 353 353 354 354 354 355 356 356 356 356 356 355 354 354 353 353 354 354 355 355 355 355 356 356 356 356 356 355 355 354 354 355 355
309 309 310 309 309 312 318 322 324 324 325 325 324 324 323 321 318 318 317 317 318 319 319 318 318 319 320 322 325 327 328 328 327 327 327 328 328 329 331 333 336 341 346 350 351 351 352 353 352 352 353 353 353 353 354 354 354 355 355 355 356 355 355 354 354 353 353 354 355 356 356 356 355 355 355 355 354 355 355 354 354 353 353 354 355
310 311 312 312 312 311 313 316 320 322 324 324 323 323 324 323 321 321 320 318 316 316 317 319 319 320 321 321 322 324 326 328 330 329 329 328 328 327 327 328 330 334 338 342 345 346 348 348 349 350 350 351 352 353 353 354 354 354 354 354 355 354 354 354 353 354 355 355 355 356 356 356 355 355 354 354 354 353 354 353 352 352 352 352 354
311 313 314 315 315 314 314 315 317 320 322 322 322 324 325 324 323 323 321 319 317 316 317 319 319 318 318 319 321 323 325 328 330 330 329 328 328 327 327 327 328 330 332 335 336 338 339 341 342 343 345 346 348 348 349 351 352 352 352 353 353 353 353 353 354 355 356 356 356 355 356 356 355 355 355 355 355 354 354 354 353 352 352 352 353
314 315 316 317 316 317 318 318 318 319 321 321 322 323 325 324 324 323 322 321 319 318 318 318 317 315 316 320 325 326 326 327 328 328 328 327 327 327 327 328 328 329 329 330 330 331 333 337 339 341 342 343 344 344 345 346 347 349 351 351 352 352 350 350 352 353 354 355 355 355 355 354 354 355 355 355 355 355 355 355 354 354 353 353 354
315 317 317 318 317 318 319 319 319 319 321 322 322 323 324 324 324 323 323 321 320 319 318 317 316 316 318 321 325 326 326 327 327 327 328 328 327 327 327 328 329 329 329 328 328 327 329 333 337 340 342 344 344 345 345 345 345 347 349 349 349 349 348 349 350 351 352 352 353 353 353 353 354 355 355 355 355 355 355 355 355 355 355 355 355
316 317 317 318 318 318 319 319 319 320 321 322 323 323 324 324 324 323 323 322 322 321 320 319 317 317 317 318 319 321 324 327 328 328 329 329 329 328 328 327 328 328 328 327 327 326 326 329 333 337 341 343 344 345 346 347 347 348 349 349 349 348 349 350 351 352 352 353 352 353 353 353 354 354 355 355 355 355 356 356 356 356 356 355 355
316 316 317 317 318 318 318 318 318 319 320 321 321 322 322 322 322 322 322 322 322 322 321 319 318 317 316 317 317 319 323 326 327 328 329 330 330 329 328 327 327 327 326 326 326 326 326 327 329 333 337 341 343 344 345 345 346 347 348 349 350 351 351 352 352 353 354 354 354 355 354 354 354 354 355 355 355 355 356 356 356 356 356 356 355
315 315 316 316 317 317 318 318 319 319 319 319 320 320 320 320 320 320 321 321 321 320 319 318 317 316 316 317 318 320 322 324 325 326 327 328 328 328 327 327 326 326 325 324 323 324 325 325 327 328 331 334 338 341 342 343 344 344 345 345 347 349 351 351 352 353 353 354 354 355 355 354 354 354 354 355 355 355 356 356 356 356 356 355 355
312 313 314 316 317 317 318 319 319 319 319 319 320 320 320 320 320 320 320 320 319 318 318 317 316 316 316 317 319 321 322 323 324 324 325 325 325 325 325 325 325 324 323 322 322 322 323 324 325 326 327 328 330 332 334 338 341 343 344 345 345 347 349 350 350 351 352 352 353 353 353 353 353 354 354 354 355 354 355 355 355 355 355 354 354
311 312 314 315 317 317 318 318 319 319 319 320 320 320 320 320 320 319 319 318 318 318 318 317 317 317 317 318 319 319 320 320 321 321 322 322 322 322 322 323 322 322 321 321 320 321 322 323 324 324 325 326 327 327 328 331 335 338 340 342 344 345 346 347 348 349 349 350 351 351 351 351 352 352 352 353 353 353 354 354 354 354 354 354 354
308 309 311 313 314 315 316 316 317 318 319 319 319 319 319 319 319 319 318 318 318 318 317 317 317 317 317 317 317 318 317 317 317 317 318 319 319 319 319 319 319 319 320 319 319 320 322 322 323 324 324 325 326 326 327 328 330 332 335 338 340 343 344 345 346 347 347 348 349 350 350 350 351 351 350 350 351 352 353 353 353 353 353 353 353
305 306 307 309 310 312 312 313 314 315 317 318 318 318 318 318 318 318 318 318 318 318 317 317 317 318 317 317 317 317 317 317 316 316 316 316 317 317 317 317 317 317 317 317 318 319 321 322 323 323 324 324 325 326 327 328 329 330 332 334 337 339 342 343 344 345 345 346 346 347 348 349 350 350 350 350 351 351 352 352 352 352 352 353 353
303 304 305 306 307 308 309 310 311 312 313 314 315 316 316 316 316 317 317 317 317 317 317 317 317 317 317 317 317 317 317 316 316 316 316 316 316 316 316 316 316 315 315 315 317 318 319 321 322 322 323 324 325 325 326 326 328 329 330 332 333 335 337 340 341 342 343 343 344 345 345 346 347 347 348 349 349 350 351 351 352 352 353 353 354
302 302 302 303 305 306 307 308 309 310 310 311 312 312 313 313 314 315 315 316 316 317 317 317 317 317 317 317 317 317 317 317 317 317 317 317 316 316 315 315 314 314 314 315 316 316 317 318 320 321 322 323 323 324 325 326 326 326 327 328 329 330 332 333 336 338 339 341 342 343 343 344 345 346 346 347 348 348 349 350 350 350 351 352 352
302 301 300 300 301 303 305 307 307 308 309 309 310 311 311 312 312 313 313 314 315 315 316 316 317 317 317 317 317 317 317 317 317 316 316 316 315 315 314 313 313 313 314 315 315 316 316 317 318 319 319 320 321 321 322 323 324 325 325 325 326 327 328 330 331 332 334 335 336 337 338 340 341 343 344 344 345 346 347 347 348 348 348 349 348
301 300 300 299 300 302 304 305 306 307 307 308 308 308 309 309 310 310 311 312 312 313 314 315 315 315 315 316 316 316 317 316 316 315 315 314 314 313 313 313 314 314 315 315 316 316 316 316 316 317 317 318 318 319 319 320 321 322 323 324 324 325 326 327 328 329 330 331 332 333 334 335 336 337 338 340 341 341 343 344 344 345 345 345 345
300 300 300 300 301 303 304 304 305 306 306 306 306 307 308 308 308 309 309 309 310 311 312 312 313 314 314 314 315 315 315 315 314 314 313 312 312 312 312 313 314 314 315 315 316 316 317 317 316 316 316 316 317 317 318 318 319 320 320 322 323 324 325 326 326 328 329 330 330 332 333 333 334 335 335 337 337 338 339 340 341 341 342 342 343
299 299 300 301 302 303 303 303 304 304 305 305 306 307 307 307 308 308 309 309 310 310 311 311 312 313 313 313 313 312 312 312 312 312 311 311 311 312 312 313 313 314 315 315 315 316 316 316 316 316 317 317 317 317 318 318 319 319 320 321 322 323 324 325 326 327 328 329 329 330 331 332 332 333 334 334 335 336 336 337 338 338 339 339 339
298 299 301 302 302 303 303 303 303 303 304 304 304 305 305 306 307 308 309 309 309 310 311 311 311 312 312 311 310 310 309 310 310 311 310 310 311 311 312 312 313 314 314 314 314 314 314 314 314 315 315 316 316 316 317 317 318 319 320 321 322 323 324 325 325 326 327 327 328 329 330 330 331 332 332 332 332 332 332 333 333 334 334 335 336
297 298 299 300 301 302 302 302 302 302 302 302 303 304 305 305 306 307 307 308 308 309 309 310 310 310 310 310 309 309 309 309 309 310 310 310 310 311 311 311 312 313 313 312 312 312 312 312 311 312 312 313 314 314 315 316 317 318 319 319 320 321 323 324 325 325 325 326 326 327 328 329 330 330 330 330 329 329 328 328 328 328 329 330 331
297 297 297 299 300 300 301 301 301 301 301 301 303 304 304 304 305 305 306 306 307 307 307 308 308 309 308 309 309 309 309 309 309 309 309 309 309 309 309 310 311 311 310 309 309 309 309 309 309 309 310 311 312 312 313 313 314 315 316 317 318 319 320 321 323 323 323 324 325 327 328 328 328 328 328 328 327 326 325 324 324 325 326 327 328
296 296 296 297 298 299 300 300 300 300 300 301 302 302 303 303 304 304 304 304 305 305 306 306 306 306 306 307 307 307 307 307 307 307 307 307 307 307 307 308 309 308 307 306 306 306 306 306 307 307 308 308 309 309 309 309 310 311 312 313 315 316 318 319 320 321 322 323 325 326 327 327 327 326 326 325 324 323 323 324 324 325 325 326 327
Wind_Speed
25 25 24 25 25 24 24 24 23 22 21 21 20 19 19 19 19 18 18 18 17 17 16 15 14 14 15 15 14 14 14 14 13 13 13 13 13 13 14 14 14 13 13 13 13 13 14 15 15 14 13 14 14 15 16 16 14 13 11 12 14 15 14 14 15 15 14 12 11 11 12 14 14 14 14 15 16 17 17 18 18 19 21 22 19
23 24 24 24 24 24 24 24 24 23 23 22 21 20 20 20 19 18 19 19 19 18 17 16 16 15 15 15 15 14 14 14 14 13 13 13 13 13 14 14 14 13 13 13 13 13 14 14 15 15 15 15 15 15 16 15 15 13 11 10 12 13 13 13 15 17 17 16 16 16 16 16 16 15 15 16 17 18 18 18 19 20 21 20 19
23 24 23 24 24 24 24 23 23 24 24 23 23 22 21 20 19 19 19 20 21 20 19 18 18 17 16 15 15 15 15 15 15 14 14 14 14 13 14 14 13 13 13 13 13 13 14 14 15 15 16 17 17 16 16 16 17 16 13 9 9 9 10 11 12 14 17 19 19 19 18 18 17 16 16 16 17 18 19 19 19 20 19 18 18
25 25 24 24 23 24 24 23 23 23 23 24 24 23 22 21 20 20 20 20 22 22 21 21 20 19 17 16 16 16 16 15 16 16 15 15 15 14 14 14 14 13 13 13 13 13 14 15 15 14 15 16 16 15 15 16 18 19 16 13 11 10 10 11 12 12 15 17 19 19 18 17 17 16 16 17 18 18 19 19 19 19 18 17 17
27 27 26 26 25 25 24 24 23 22 21 22 23 23 23 22 21 21 21 21 21 22 21 22 23 22 20 17 16 17 17 16 16 17 17 16 16 16 16 16 15 14 14 14 14 14 15 15 15 15 15 16 15 14 14 15 17 19 19 17 15 13 12 12 13 14 16 18 19 18 18 17 17 16 17 19 20 19 19 20 20 20 20 18 16
28 28 27 27 27 27 27 26 24 22 21 22 23 23 23 23 22 22 22 21 21 22 22 22 23 23 23 20 18 18 18 17 17 17 17 16 16 17 17 17 17 16 16 15 16 16 16 16 15 15 16 16 16 15 15 15 16 17 19 20 18 17 16 15 14 15 17 19 21 22 22 22 21 20 19 21 21 21 21 21 20 20 19 19 16
26 28 28 28 28 28 28 28 26 24 23 22 23 23 24 25 25 24 24 23 22 22 22 22 23 23 23 21 20 19 18 18 18 17 17 16 16 17 17 18 19 18 18 17 17 17 17 16 15 15 16 17 17 16 16 16 16 16 17 19 20 20 20 19 18 17 19 21 23 25 25 25 25 23 21 20 20 21 21 22 22 20 19 18 18
19 20 22 23 25 26 27 29 28 26 24 23 22 23 25 27 27 27 27 26 24 23 22 22 23 23 23 21 19 18 18 19 19 19 18 18 18 18 17 18 19 19 19 18 18 18 17 16 16 16 17 17 17 16 16 15 15 14 14 15 17 19 21 21 21 21 22 24 24 23 23 23 23 21 20 19 20 20 20 22 24 23 22 20 19
15 14 15 17 20 22 24 27 29 28 26 24 22 22 24 27 29 30 30 29 27 25 24 22 22 23 23 23 22 20 19 18 19 20 20 20 20 20 19 19 19 20 20 19 19 19 18 18 17 17 17 17 17 16 14 12 12 12 11 11 12 14 15 17 18 20 21 21 21 21 21 22 21 21 20 20 20 21 21 23 25 24 24 23 22
13 13 13 14 17 20 21 24 27 28 27 25 22 22 24 27 30 32 32 31 30 28 27 26 25 24 23 23 23 23 22 20 19 18 18 19 20 21 21 21 21 21 21 21 20 20 20 20 19 19 19 19 18 18 15 12 12 13 14 14 15 15 16 16 17 18 19 20 21 21 22 23 22 22 23 22 21 22 23 24 26 26 25 27 26
14 14 14 13 14 17 18 21 24 26 26 26 24 24 25 28 32 33 31 30 29 29 29 29 29 29 28 27 25 25 25 23 21 19 17 17 17 18 20 21 22 23 23 22 22 21 21 21 21 21 21 20 20 19 17 16 15 16 17 17 18 19 20 20 20 21 21 22 23 23 24 25 24 23 23 24 23 24 25 26 28 28 28 29 30
12 13 13 12 10 10 12 15 17 20 22 22 23 25 27 30 33 33 31 30 28 27 28 29 30 31 32 32 31 29 27 25 23 22 20 19 17 17 18 19 21 23 24 25 24 23 22 22 22 22 22 22 21 20 19 18 18 18 19 20 20 20 21 22 23 24 24 25 26 26 26 26 26 25 25 26 27 28 29 30 30 31 31 32 32
6 8 10 9 8 8 8 10 11 13 16 18 20 25 30 33 33 32 31 30 29 28 27 27 27 29 32 33 33 33 31 29 26 24 23 21 20 20 19 19 19 19 21 23 25 26 25 25 24 24 23 23 23 22 22 21 20 21 22 23 23 23 23 24 25 26 27 28 29 30 28 28 29 29 28 28 30 31 32 32 31 32 33 33 32
4 5 6 6 6 6 7 7 9 10 13 15 17 21 26 30 31 30 30 31 31 31 29 28 26 26 29 33 34 34 33 32 30 28 26 23 21 20 21 22 21 20 19 19 21 23 25 26 27 26 26 25 25 25 25 24 24 24 25 25 26 26 26 27 27 28 28 30 32 32 31 30 32 32 31 30 32 32 32 31 31 31 32 31 31
9 7 6 5 5 5 6 7 8 8 9 11 14 15 17 21 24 26 27 28 30 31 31 31 29 26 26 30 34 35 35 34 32 31 29 26 23 21 21 22 23 23 22 20 19 20 21 23 25 26 26 27 27 27 27 27 28 28 28 29 29 29 29 30 30 30 30 30 32 33 33 33 33 34 33 32 32 32 31 30 29 30 30 30 29
12 11 9 7 5 3 4 6 8 10 8 8 9 11 12 14 16 19 21 23 26 28 30 32 32 29 26 28 30 32 34 35 34 32 30 27 26 24 23 23 23 24 24 23 23 22 21 21 22 23 24 25 25 26 27 28 29 30 30 31 31 31 31 31 30 31 31 32 33 34 34 34 34 34 34 33 32 31 30 29 28 27 29 30 30
13 12 11 10 9 7 4 2 4 7 9 9 8 9 10 11 13 15 17 19 21 24 26 29 31 31 29 29 29 31 32 32 31 30 29 27 26 27 27 26 26 26 26 25 25 25 24 24 24 24 25 25 25 25 25 26 28 30 31 32 32 34 34 33 32 32 33 34 34 35 35 35 35 35 34 33 32 31 31 30 28 26 28 31 31
11 12 11 11 10 8 7 6 5 4 4 6 7 7 8 10 11 12 14 17 19 21 23 25 27 28 29 29 30 31 32 30 28 27 27 27 28 29 29 28 28 29 30 30 30 29 28 27 27 28 29 29 28 28 27 27 29 30 32 33 35 37 37 35 35 35 35 35 36 36 35 34 34 34 33 32 31 30 31 32 28 27 29 31 31
9 9 9 10 10 9 8 7 6 4 2 0 1 3 5 8 10 10 11 13 16 18 20 22 24 25 26 28 30 31 32 31 30 29 28 27 28 28 28 28 29 30 31 32 33 33 33 32 31 31 32 32 32 32 31 31 31 32 33 35 38 40 38 36 37 38 38 38 38 38 37 35 34 33 32 31 29 29 30 30 28 28 31 32 31
6 6 6 7 8 7 8 8 7 6 5 4 5 5 5 5 6 8 8 9 12 15 17 19 21 23 24 25 27 28 29 30 31 31 31 30 30 29 28 29 30 31 31 32 33 34 35 36 35 35 35 35 35 35 35 34 35 36 36 38 40 41 39 38 39 40 40 41 41 40 40 37 36 34 33 31 29 28 29 29 29 28 30 31 31
4 6 6 5 4 4 5 7 8 8 8 7 7 8 8 6 5 5 5 6 8 11 14 16 17 19 21 22 24 25 25 27 28 30 31 33 33 32 33 33 33 33 33 34 35 37 37 37 38 37 38 38 38 37 37 37 37 39 40 41 41 40 39 40 40 40 40 41 40 40 39 37 35 34 33 32 30 29 29 29 29 28 28 29 30
4 4 6 7 6 4 2 4 7 9 9 9 8 9 9 7 5 5 4 5 7 9 10 12 13 14 16 18 21 23 24 24 25 27 29 31 33 33 34 35 34 34 34 34 35 36 37 38 39 39 39 39 39 39 38 37 37 39 40 40 40 39 39 40 39 38 38 38 38 37 36 35 35 34 33 32 31 29 29 29 29 29 30 30 31
6 5 5 7 9 9 7 5 6 8 9 9 9 9 8 6 5 5 5 6 8 9 10 11 12 13 14 14 16 19 22 24 25 24 25 27 29 31 32 32 32 32 33 34 33 33 34 35 37 38 39 39 39 39 38 37 37 38 38 38 37 37 38 38 38 37 36 35 34 35 35 34 34 34 33 32 30 28 28 28 29 30 31 32 33
6 6 7 7 9 11 11 10 7 7 8 8 8 7 7 6 6 6 6 7 9 10 11 12 13 14 15 15 15 16 18 20 22 23 22 23 24 26 28 29 29 30 31 32 32 31 30 31 32 33 35 37 38 38 38 38 38 38 37 37 37 37 37 37 37 36 34 34 34 34 34 34 34 34 33 31 30 29 29 29 29 28 29 30 31
6 6 8 8 9 10 11 12 10 7 7 7 8 8 8 8 9 9 9 10 11 12 12 13 13 15 15 16 16 17 17 18 19 19 20 20 21 23 25 27 28 30 32 33 32 32 31 30 30 31 32 33 35 37 38 38 38 38 38 38 38 38 38 37 37 36 36 36 36 36 37 36 36 36 35 33 32 32 32 31 31 29 29 30 30
8 8 8 8 9 9 9 10 10 8 7 7 8 8 9 10 11 11 11 12 13 14 13 13 13 13 13 13 13 15 17 18 19 18 17 17 18 20 23 26 27 29 31 33 33 34 34 34 34 33 33 33 34 36 37 38 39 40 40 40 40 40 39 39 39 39 39 39 39 39 39 39 38 38 37 36 36 36 35 34 33 32 31 31 33
10 10 10 8 7 6 7 7 8 8 8 9 9 9 9 11 12 13 14 15 15 14 14 14 13 12 11 11 11 12 13 14 16 17 18 18 18 18 20 23 25 27 29 31 33 35 36 36 36 36 35 35 35 36 36 37 38 39 40 41 42 42 42 41 41 41 42 44 44 43 43 42 42 41 41 40 40 39 37 36 37 35 34 34 37
12 11 11 9 6 4 5 5 5 6 8 11 12 12 13 14 15 15 15 15 16 15 15 14 14 15 14 13 13 13 13 12 14 16 17 17 18 20 22 23 23 24 27 29 32 34 35 36 36 36 36 35 35 35 35 36 37 38 39 40 42 44 44 45 45 46 47 48 47 46 44 43 43 44 44 44 43 42 40 40 41 40 38 38 40
13 12 12 10 7 5 6 6 6 7 9 11 13 15 17 17 17 16 14 13 13 15 15 15 14 15 15 15 15 16 16 14 14 16 16 17 17 20 23 24 24 24 25 27 29 32 33 34 34 35 35 35 35 35 34 34 35 36 37 39 41 43 44 45 46 46 45 44 43 41 39 38 39 40 41 42 43 42 41 41 41 40 38 39 40
12 12 12 12 10 7 8 9 10 9 11 13 14 16 17 18 16 15 15 13 13 14 16 17 17 17 17 15 15 16 17 17 17 17 17 16 17 19 21 22 23 26 27 28 30 31 32 32 33 34 34 34 35 34 34 33 34 35 36 37 37 38 39 40 41 40 39 38 38 37 35 34 35 36 36 37 37 36 35 35 35 35 36 37 38
12 12 12 12 12 11 11 12 12 11 12 14 14 14 16 18 18 18 18 17 15 15 16 17 18 18 18 17 16 16 17 17 17 18 18 18 18 19 20 21 23 24 27 30 33 34 34 34 35 35 35 35 35 35 34 34 34 35 36 35 34 33 34 36 36 35 35 34 34 34 33 33 33 33 33 32 32 32 32 32 33 33 34 35 36
12 12 11 11 12 12 11 12 13 13 13 14 13 13 17 20 21 20 20 20 17 15 15 16 17 17 18 18 17 16 16 16 17 19 20 20 20 20 20 21 22 22 23 25 28 30 31 32 34 35 35 36 36 36 35 35 35 35 36 35 34 32 31 32 32 31 32 32 31 31 31 31 32 33 33 33 33 33 33 34 34 34 34 34 35
11 11 10 10 11 10 10 11 13 14 14 15 14 14 17 20 21 21 22 21 18 16 16 16 16 16 17 16 15 15 15 16 18 20 20 21 21 21 21 21 21 22 22 23 24 25 25 26 28 30 31 31 32 34 35 35 35 35 35 34 33 32 31 30 30 30 30 31 31 30 30 31 32 34 34 34 34 34 34 34 34 34 34 35 35
9 9 9 10 11 12 12 12 13 13 14 14 15 15 16 18 19 20 21 22 22 20 18 15 15 16 18 16 16 17 17 17 18 20 21 21 22 22 23 23 23 23 23 24 24 24 24 24 24 25 26 27 28 29 30 32 33 34 35 35 34 33 32 31 31 31 31 30 30 30 30 31 32 34 35 35 35 35 35 34 34 34 35 36 36
9 9 10 11 12 13 14 14 14 14 14 14 15 16 17 18 19 20 21 23 24 23 21 18 17 19 21 21 20 20 19 18 19 20 22 23 24 25 25 25 25 25 25 25 25 25 24 24 23 23 24 25 26 26 27 29 29 30 31 31 32 33 32 31 30 31 30 29 29 29 28 30 32 33 35 36 36 36 36 36 35 35 35 35 35
10 10 10 11 12 13 14 15 16 17 17 18 18 19 20 22 22 23 23 24 24 24 24 22 21 21 22 22 22 21 20 20 20 20 21 24 26 27 27 28 28 28 28 28 28 27 26 25 24 23 23 24 25 25 26 27 28 29 29 29 29 30 30 30 30 30 30 30 30 29 29 32 35 36 36 37 37 37 37 36 36 36 35 36 35
12 12 11 11 11 12 13 14 15 16 17 18 18 20 21 22 22 22 22 23 24 24 24 24 23 22 22 22 22 22 22 22 22 23 24 25 27 29 31 32 32 32 31 30 30 29 29 29 28 27 26 26 26 27 27 27 28 29 30 31 31 31 30 30 31 32 32 33 33 32 33 36 37 37 37 37 38 39 39 38 37 38 37 36 35
13 13 12 11 11 12 12 13 13 14 14 15 16 17 18 18 18 19 21 23 23 23 23 23 22 22 23 23 24 25 26 26 27 28 28 29 31 32 33 34 35 35 34 32 30 30 30 30 31 30 30 29 29 29 30 29 28 28 29 30 30 29 29 29 30 30 30 30 30 30 32 34 35 36 38 39 40 40 40 39 39 39 38 36 35
13 14 14 14 15 15 15 15 15 14 14 15 16 17 17 17 19 20 21 22 23 23 23 23 22 21 22 24 26 28 29 31 33 34 34 34 35 35 36 36 36 36 36 35 33 30 29 30 31 31 32 31 31 32 32 31 31 31 31 31 31 30 30 30 31 31 31 30 29 30 30 31 33 34 36 37 38 38 37 37 37 38 37 36 34
13 13 14 15 17 18 18 17 17 17 16 16 17 18 19 19 20 21 22 23 24 25 25 25 24 23 23 25 27 29 30 32 34 36 38 38 38 38 38 38 37 37 37 36 35 32 30 29 29 30 31 31 32 33 33 33 32 32 31 32 33 32 31 31 31 32 32 32 32 31 31 31 32 33 34 35 36 36 35 36 36 36 35 33 32
17 15 14 14 15 17 18 19 19 19 19 20 20 20 20 21 22 23 24 25 26 27 27 27 27 26 25 26 28 30 30 32 34 37 38 38 37 37 38 38 38 37 37 37 35 33 31 29 28 28 29 30 31 32 32 33 33 32 32 31 32 32 33 32 32 32 33 32 32 32 31 31 32 33 34 34 34 35 35 35 35 35 34 33 33
20 19 17 15 15 15 16 17 18 19 20 21 22 22 22 23 23 24 26 27 27 28 28 28 28 28 27 27 28 29 30 31 33 34 34 34 33 34 36 38 40 39 37 36 34 33 32 31 29 29 29 29 30 31 31 32 32 32 32 32 33 33 34 35 35 35 36 35 35 34 34 33 33 33 33 33 33 34 36 37 37 36 37 37 37
21 21 20 19 17 16 16 16 16 16 17 18 19 20 21 22 23 24 25 26 27 27 27 28 27 27 27 27 27 28 29 29 30 31 32 32 33 35 38 40 40 37 34 33 32 32 31 31 31 30 29 29 29 30 31 32 33 33 33 33 33 34 34 35 36 37 38 38 39 39 38 37 36 36 35 35 35 36 38 38 38 38 38 38 38
21 22 23 22 19 16 15 14 14 14 14 15 17 18 20 21 22 24 25 25 26 26 26 26 26 25 25 26 27 28 28 28 29 32 33 35 36 38 38 36 34 32 32 32 32 31 31 32 33 32 31 30 29 29 30 31 32 33 34 34 34 34 33 33 33 34 34 36 37 38 39 40 40 40 40 39 38 38 39 39 39 39 39 39 39
23 24 24 22 18 15 14 14 14 14 16 17 18 19 20 21 22 23 24 25 25 25 25 25 25 26 27 28 29 29 29 29 30 32 35 37 38 36 33 31 31 33 33 33 32 31 31 32 34 34 33 31 29 29 29 29 30 32 33 34 35 35 34 33 32 32 31 31 31 31 31 33 34 36 38 39 39 39 40 40 40 40 41 41 41
22 21 19 17 14 13 13 14 15 15 16 17 19 20 20 21 22 23 23 24 25 25 25 25 25 26 27 27 28 28 28 29 30 33 36 38 36 32 30 31 34 35 35 33 31 30 30 31 33 34 34 32 31 29 28 28 29 31 32 32 33 34 34 33 32 31 30 29 29 28 28 28 28 28 30 32 34 36 37 39 40 40 41 42 43
18 14 13 12 13 13 14 15 16 16 16 17 19 20 20 20 21 21 21 21 21 22 23 24 25 25 25 25 26 28 28 29 31 34 36 36 34 31 32 34 34 35 34 33 31 29 29 30 31 32 32 32 31 28 27 27 28 29 30 30 31 32 32 32 32 31 29 28 29 29 29 29 28 27 27 28 30 31 32 33 35 36 38 39 41
16 12 10 11 12 13 14 16 17 18 18 19 20 20 20 20 21 21 21 21 22 22 23 24 26 27 27 27 28 30 29 29 31 33 35 35 33 33 34 35 34 34 34 33 31 30 30 30 30 30 31 31 31 29 27 26 26 27 29 30 30 31 31 31 31 30 29 28 28 28 28 29 29 28 28 28 28 29 29 30 31 32 33 35 37
17 13 13 13 12 13 15 17 18 20 20 20 20 19 20 20 21 22 23 24 25 25 25 26 27 28 29 29 29 30 30 30 31 32 33 33 34 34 35 35 33 33 32 31 30 30 29 29 29 29 29 30 30 29 28 27 26 26 27 28 29 29 28 28 29 28 28 27 27 27 27 28 28 28 29 28 28 28 28 28 29 30 31 32 33
15 14 13 13 13 14 17 18 20 21 21 20 20 20 20 20 20 21 22 23 25 25 26 26 27 28 28 29 29 30 31 31 31 31 32 33 34 34 34 33 31 30 30 29 29 28 28 27 27 27 27 27 27 27 26 25 25 25 25 25 26 26 25 25 25 25 25 26 25 25 26 27 27 27 27 27 26 26 25 25 25 26 26 26 25
15 14 12 11 11 13 16 18 19 20 20 21 22 22 22 21 21 22 22 23 24 24 25 25 26 26 27 27 28 29 29 30 30 31 32 32 32 32 31 29 27 27 27 27 27 26 26 25 24 24 23 23 23 23 22 22 21 21 22 22 22 22 22 22 22 22 22 23 23 22 23 23 23 23 22 21 21 21 20 20 19 19 18 17 16
Wind_Direction
214 213 211 211 212 211 212 214 215 216 220 223 226 225 222 220 221 222 220 219 219 219 220 220 216 214 218 223 224 224 225 225 225 226 227 231 234 234 235 236 237 238 239 240 238 236 239 239 235 233 236 241 243 245 245 245 248 252 263 271 267 265 264 259 256 253 249 253 261 262 263 270 281 286 287 290 293 294 297 302 308 311 314 315 313
214 215 214 213 214 215 215 217 218 218 219 222 226 229 229 227 225 225 226 225 226 226 226 225 222 220 221 224 226 227 227 227 225 227 228 230 232 234 236 239 241 241 241 242 241 238 240 241 240 238 241 246 249 248 245 245 249 252 256 268 273 272 273 271 267 261 254 256 266 271 272 277 285 289 291 290 289 290 294 299 305 307 310 312 312
214 215 215 216 218 217 216 218 222 224 223 223 225 227 230 231 230 229 229 228 229 231 232 231 228 227 226 227 229 229 230 230 229 230 230 231 234 234 237 242 243 243 244 244 241 242 245 246 248 247 246 249 253 253 251 247 249 253 251 251 263 273 279 280 277 271 264 260 263 269 272 274 279 283 285 287 288 290 293 298 303 306 308 310 312
215 215 215 215 218 219 219 218 221 227 230 229 228 228 230 230 231 234 234 231 230 232 234 235 235 236 234 231 232 233 234 234 234 236 234 235 238 239 241 245 245 244 245 246 243 244 248 251 254 254 251 252 256 258 256 250 248 252 253 249 252 262 273 279 281 280 277 272 269 271 275 277 277 277 280 286 289 289 291 297 301 304 307 310 315
218 218 219 217 216 219 220 219 219 225 235 239 237 234 232 230 231 235 238 237 234 233 234 236 237 240 240 238 237 237 239 240 240 240 240 238 240 243 245 248 248 248 248 248 247 245 247 251 255 257 256 257 260 260 258 252 247 247 251 253 254 259 265 272 276 277 280 282 281 282 286 287 284 282 286 293 293 291 292 298 303 307 310 312 316
220 219 221 220 219 221 222 222 219 217 225 237 242 240 235 232 234 238 240 240 239 237 237 238 239 241 243 243 243 241 241 243 244 245 245 243 244 245 246 248 249 251 251 251 252 249 248 251 253 256 258 260 262 263 261 258 252 247 248 250 253 257 262 266 270 274 278 281 283 285 287 289 289 288 291 296 298 297 299 303 305 308 310 311 312
221 218 219 220 221 222 222 223 222 219 218 222 229 236 237 234 236 240 242 243 243 242 242 243 244 245 246 246 246 245 243 244 246 248 249 250 251 250 248 249 250 252 254 254 256 257 255 254 254 256 259 262 264 265 266 266 265 262 256 251 251 253 257 260 263 268 272 274 276 279 282 285 286 289 293 297 298 301 306 308 308 310 312 310 307
223 221 222 222 222 222 222 222 222 224 223 219 218 223 231 235 237 240 241 242 243 245 247 249 249 249 249 249 250 251 249 248 248 250 252 253 255 255 253 251 250 252 254 256 258 261 260 257 255 256 258 262 266 267 269 272 274 275 272 264 259 256 257 260 261 264 267 270 273 276 280 283 286 290 296 300 301 304 310 310 309 312 315 310 305
223 224 223 224 224 223 222 221 220 222 225 224 221 220 225 231 236 238 239 239 240 242 245 250 254 254 253 252 252 254 254 252 250 251 253 254 256 257 257 256 254 253 253 255 259 262 263 261 259 259 260 263 265 265 265 270 275 280 284 283 277 272 270 268 268 269 270 272 276 280 282 286 291 297 301 304 307 309 311 310 309 313 314 310 308
212 216 215 217 222 224 225 221 218 219 223 225 228 229 228 228 232 236 237 238 240 241 240 243 248 252 255 254 252 251 252 253 252 252 254 254 256 257 257 257 257 257 256 257 258 260 263 265 265 265 264 264 263 262 257 256 264 274 281 284 283 283 282 281 280 281 280 280 285 287 286 289 295 299 301 305 308 308 309 309 308 310 310 307 309
181 199 205 206 213 219 222 222 221 221 222 225 228 230 229 228 231 233 234 235 239 242 242 241 242 244 248 251 252 251 250 251 252 254 256 257 258 259 260 260 258 257 258 259 260 261 262 264 266 267 266 264 263 263 259 255 257 265 272 277 279 278 278 278 281 284 284 285 289 291 289 291 296 299 301 304 306 306 307 307 306 306 306 306 308
162 175 187 192 195 198 205 213 218 221 223 226 227 227 227 228 229 232 234 234 236 240 243 244 244 243 243 246 249 251 252 254 254 255 257 259 262 264 265 266 264 261 260 260 261 263 263 264 266 266 267 266 265 266 265 263 261 263 266 270 273 274 275 275 276 280 282 284 287 289 289 291 294 297 299 303 306 307 306 305 303 304 304 304 305
160 159 168 175 176 176 183 191 199 206 212 219 224 226 227 228 229 231 234 236 238 240 242 245 247 246 244 244 247 249 252 255 256 257 257 258 261 264 266 269 270 270 268 266 264 264 264 265 266 266 267 267 267 267 266 265 264 262 262 264 266 268 269 271 273 275 278 280 282 284 286 288 289 292 297 301 304 305 306 305 304 303 303 302 301
138 146 155 165 173 177 184 189 190 194 199 205 213 221 226 229 231 233 234 236 239 242 243 244 247 249 248 245 246 248 250 253 256 258 258 259 259 263 266 269 271 273 275 275 272 268 267 266 266 266 266 267 267 268 267 267 267 265 264 264 265 266 266 268 270 271 273 275 277 280 282 284 286 290 295 298 300 302 305 305 304 302 300 298 296
96 104 117 138 164 185 199 208 210 207 204 203 208 216 224 229 232 235 237 238 239 242 244 243 245 248 248 244 244 246 248 250 253 255 257 259 260 261 264 267 269 271 272 274 276 274 272 270 269 268 268 267 267 267 268 269 269 269 268 268 268 268 266 265 266 268 270 272 275 278 281 283 286 289 293 295 295 299 301 301 301 300 298 295 293
79 81 85 96 112 146 199 225 230 232 234 227 219 221 226 231 235 237 238 240 241 242 243 242 243 245 244 242 242 244 247 249 252 254 255 257 259 259 259 261 263 265 266 268 270 271 273 274 273 273 273 272 272 271 270 270 269 269 269 268 269 269 268 268 268 270 273 275 277 280 283 285 287 288 291 292 292 295 297 296 296 296 296 295 293
68 68 70 76 83 91 105 141 209 229 238 239 235 233 233 235 239 241 241 242 244 245 244 243 243 244 243 242 242 243 245 247 250 253 254 254 254 254 255 255 258 261 264 266 267 267 267 268 270 273 274 275 277 278 277 274 271 270 270 270 271 272 273 276 278 279 280 282 284 286 288 290 290 291 292 292 293 294 293 291 291 291 291 291 290
56 56 59 62 65 70 76 84 104 142 206 228 232 238 239 239 243 246 246 245 245 248 249 246 245 246 246 246 245 245 245 244 245 248 251 251 251 250 250 251 254 259 264 266 267 267 266 266 267 269 271 273 276 278 278 277 275 274 274 274 275 275 277 281 284 285 287 288 288 289 290 291 292 293 293 293 293 292 289 287 288 286 284 284 285
44 44 51 55 55 56 59 61 73 87 87 159 254 277 268 256 254 257 259 255 251 252 253 251 248 248 248 248 248 247 246 244 242 243 246 248 248 248 248 250 253 258 263 267 268 268 268 268 268 268 270 272 274 276 276 275 274 275 276 276 276 278 281 284 285 287 288 289 289 289 289 290 291 291 290 290 289 286 284 283 283 280 278 278 281
25 22 27 45 52 49 46 42 41 39 34 43 45 16 338 310 288 278 274 271 264 261 261 260 255 252 251 251 250 251 251 250 246 244 245 245 247 248 249 251 254 258 262 266 268 270 270 270 270 269 270 272 273 274 275 275 274 275 276 275 276 280 284 285 285 286 287 287 287 287 287 287 287 287 286 284 282 281 280 279 278 276 275 276 277
355 353 345 356 24 39 36 24 16 13 12 19 30 23 11 2 340 309 288 283 280 273 271 272 268 263 259 256 253 253 255 255 252 250 249 249 249 251 252 254 256 260 263 266 267 268 269 269 270 270 271 272 272 273 273 273 274 275 275 275 277 281 284 284 284 285 285 285 284 284 283 283 282 282 281 280 280 280 280 280 279 277 275 275 276
308 326 320 318 319 321 359 10 0 357 356 356 3 10 15 15 358 338 317 299 294 291 290 291 288 282 275 267 261 257 256 256 255 253 251 252 253 254 255 257 260 264 266 267 268 269 268 269 269 270 271 272 273 273 272 271 272 273 274 276 278 280 281 281 282 282 281 280 280 280 279 279 278 278 278 278 280 281 282 284 283 280 276 274 273
291 292 289 299 304 301 301 319 341 346 345 344 348 353 1 3 353 344 334 313 300 298 300 301 300 296 291 284 275 267 260 257 255 253 253 254 255 256 256 259 262 265 267 269 270 271 271 270 271 271 271 272 272 272 271 269 268 269 271 274 276 278 279 279 279 278 277 275 275 275 275 275 276 277 277 277 280 284 286 286 284 281 278 275 272
279 272 270 280 293 299 302 305 315 334 337 331 332 335 337 342 343 338 331 324 317 311 308 307 306 304 299 295 292 285 275 265 258 256 257 257 257 258 257 257 258 261 264 266 269 272 273 273 274 273 273 272 271 271 270 268 265 265 268 271 274 275 276 277 278 277 275 273 272 271 271 272 274 276 277 280 284 286 286 284 282 280 280 278 276
282 268 265 269 276 286 298 302 305 317 323 315 317 321 319 322 330 332 332 332 330 326 321 317 315 313 309 302 296 291 289 283 272 262 259 257 257 257 257 257 257 258 259 262 265 268 270 271 272 272 272 271 271 271 271 270 267 266 267 270 272 274 274 276 277 277 276 275 274 273 272 273 274 276 278 281 282 282 281 281 280 281 281 280 279
296 289 281 276 274 276 286 296 301 309 311 300 297 304 308 311 315 320 325 329 329 329 326 323 321 321 320 317 306 294 292 291 285 277 270 264 261 260 259 259 260 261 262 263 265 266 268 268 269 270 270 270 270 270 270 270 270 269 268 269 271 273 274 275 276 277 278 278 277 276 277 278 278 278 278 277 276 276 277 279 280 281 280 280 280
295 299 301 301 290 271 271 286 298 307 307 295 286 286 288 293 301 309 315 318 320 321 323 323 323 321 319 319 317 311 309 308 302 295 288 280 275 273 270 266 265 265 266 266 267 267 268 269 270 271 272 272 271 270 270 270 270 270 269 269 270 272 273 273 273 274 276 277 277 277 279 280 280 279 278 277 276 278 279 279 280 280 281 282 282
292 295 300 308 303 266 249 266 286 297 299 294 291 288 283 283 295 306 311 312 313 313 314 318 322 322 318 315 312 310 313 322 324 319 313 303 293 285 279 275 273 271 269 268 267 267 267 268 269 270 271 272 272 272 272 271 270 270 270 269 270 271 272 272 272 273 275 277 277 278 280 281 279 279 279 278 278 279 279 279 279 280 281 282 281
292 293 293 298 299 266 237 242 257 271 279 281 284 287 286 289 297 304 308 309 308 307 306 308 313 315 313 312 311 308 306 309 316 319 321 318 309 299 292 287 281 275 271 269 268 267 267 267 267 267 268 269 270 271 271 271 270 269 269 269 270 271 272 273 274 275 277 278 278 279 280 281 279 279 279 279 279 279 280 280 280 281 281 280 279
287 290 291 291 289 273 252 249 255 262 269 273 278 287 293 298 304 308 308 304 299 298 301 305 309 309 305 302 303 305 303 303 305 305 307 309 308 307 306 302 293 283 276 272 271 271 271 269 268 269 270 270 269 269 269 269 269 268 268 269 270 273 275 276 277 278 279 279 279 279 278 277 278 280 283 283 282 281 281 281 281 281 279 278 277
282 286 292 295 294 289 279 270 267 269 272 275 282 295 304 306 307 309 306 302 296 292 296 303 308 310 306 301 297 295 296 299 299 297 297 298 298 298 301 304 304 297 288 281 278 277 277 276 274 274 274 274 273 272 270 270 269 270 271 271 272 273 274 274 275 278 280 281 282 281 277 274 277 281 284 284 284 283 282 281 281 279 278 277 277
282 284 292 300 303 305 305 295 284 278 276 276 284 299 303 301 301 302 304 307 303 294 293 303 310 310 306 302 296 292 290 295 302 301 298 296 294 291 292 296 300 302 299 295 291 288 288 286 282 280 279 279 278 277 276 275 275 276 278 278 277 275 274 274 275 276 277 278 280 281 279 276 276 280 283 284 285 284 283 282 281 281 281 281 280
280 282 288 296 299 300 305 303 293 286 283 282 285 291 293 293 296 300 303 307 307 299 293 295 303 311 312 303 292 289 290 296 304 306 303 298 294 289 287 289 291 293 296 298 298 299 299 298 294 290 288 286 284 283 282 280 279 281 283 283 281 277 275 276 278 278 276 275 277 278 277 275 276 279 283 286 286 285 283 282 281 281 281 281 281
277 276 278 284 286 286 289 292 288 286 287 286 285 287 288 289 292 297 300 303 306 307 302 292 290 305 314 304 288 287 295 301 303 303 303 302 299 294 289 287 287 288 290 292 294 296 298 299 299 297 295 293 292 290 288 285 283 282 283 285 284 282 280 280 281 281 279 278 277 276 275 273 273 276 280 283 284 284 282 281 281 281 281 281 282
272 268 266 268 272 276 279 280 280 280 281 281 283 286 287 286 288 292 296 299 302 306 308 303 297 301 306 302 292 290 295 300 301 299 298 298 297 295 292 291 289 289 289 289 290 290 292 294 295 296 295 294 293 292 291 290 289 288 287 286 285 284 283 283 283 283 281 280 278 277 276 275 275 275 277 279 280 281 281 281 282 283 284 285 285
271 269 268 269 272 275 277 279 279 279 279 280 284 286 287 288 290 291 294 297 300 302 304 304 302 299 298 297 294 291 292 295 295 294 294 294 294 294 296 297 297 296 295 293 290 288 287 286 286 286 287 288 289 289 288 287 287 288 289 288 285 282 280 278 278 279 279 278 276 273 273 276 279 278 276 277 278 279 280 281 282 282 282 283 285
270 269 271 276 281 284 285 286 286 284 283 284 287 289 290 292 292 292 293 296 298 299 299 299 298 295 290 289 288 287 287 287 287 287 288 288 289 292 295 297 299 298 297 295 292 289 286 284 282 281 280 279 281 282 283 283 283 283 283 283 283 282 279 276 274 275 275 275 273 271 269 271 274 274 274 276 277 277 279 281 282 281 280 279 281
271 268 267 271 276 280 285 289 290 288 284 281 281 282 284 286 286 288 290 291 292 294 296 297 297 294 290 288 288 288 287 286 284 284 285 286 287 290 292 295 297 298 298 296 294 291 288 285 283 282 281 279 278 277 276 277 278 279 279 279 279 279 279 279 277 276 276 275 275 274 274 273 271 270 271 273 274 276 278 281 281 281 281 280 280
275 266 260 259 262 266 270 274 277 277 274 270 268 269 270 272 275 279 283 285 287 290 292 294 295 294 293 292 292 291 291 291 290 288 288 290 292 293 295 296 297 297 297 297 295 294 290 286 283 282 281 281 281 279 277 276 274 274 276 278 279 280 282 282 280 280 280 279 277 276 276 277 276 274 273 274 276 278 280 280 280 281 281 281 280
289 277 266 260 260 262 263 264 266 267 266 264 263 264 266 268 271 274 277 279 281 283 285 288 289 289 291 291 291 291 292 292 292 292 291 291 293 296 299 300 298 297 297 297 296 296 293 289 285 282 281 281 281 281 281 280 277 274 272 273 275 278 280 280 278 277 277 277 273 270 268 270 272 275 276 278 279 281 281 280 280 281 282 282 282
306 298 286 276 270 268 267 264 262 260 261 262 264 266 268 270 273 275 276 278 279 280 281 283 284 285 286 287 289 290 292 293 294 294 294 294 296 299 301 301 301 300 300 298 297 296 296 293 289 285 283 282 282 282 282 281 280 277 274 271 270 271 274 276 277 277 277 277 274 271 269 267 267 269 272 274 276 278 278 277 278 279 280 282 283
315 310 303 293 286 283 280 275 269 263 261 261 263 265 268 271 273 275 276 277 279 280 281 281 282 284 285 286 289 292 295 296 295 294 296 298 299 300 301 302 303 304 303 301 300 300 299 296 293 290 288 286 285 284 284 283 282 280 277 274 271 270 270 271 273 275 277 278 278 278 277 275 273 272 272 273 274 276 277 276 276 276 276 276 276
311 310 309 305 299 293 289 286 281 277 272 270 270 271 272 273 274 274 275 275 276 278 280 282 283 284 285 288 290 292 294 296 295 295 295 297 297 298 300 302 305 307 308 307 306 304 302 300 297 295 293 292 290 289 287 285 285 284 283 281 278 276 273 271 270 270 271 272 274 275 276 277 277 277 276 275 275 275 275 275 274 273 272 271 271
306 309 312 312 306 297 291 292 293 291 287 286 283 280 276 276 276 276 277 278 278 278 279 281 283 284 285 286 288 289 289 291 292 293 293 294 295 298 300 303 307 309 310 309 307 306 305 303 301 298 297 296 295 293 291 289 288 287 287 286 285 283 281 278 277 275 275 274 273 273 272 272 272 272 273 273 273 273 273 273 273 273 273 272 272
303 305 309 311 309 301 298 300 301 297 292 289 286 283 280 279 279 280 280 281 281 281 280 280 280 281 282 284 285 285 287 289 290 291 292 294 296 298 302 306 308 308 307 306 306 305 305 305 303 302 301 300 297 295 293 292 291 290 289 289 289 288 287 286 285 284 284 283 281 279 277 275 273 271 272 272 271 271 271 271 272 273 273 273 273
303 304 306 308 304 299 297 297 295 293 290 288 287 288 287 285 284 285 284 284 283 282 282 281 281 280 280 282 283 285 288 291 292 292 294 297 298 300 303 305 305 305 304 304 303 302 302 303 303 303 302 300 298 298 297 295 293 292 291 291 290 290 290 290 288 288 288 287 286 286 286 285 282 280 278 277 274 272 271 270 270 271 271 271 271
310 311 311 308 302 296 293 292 291 291 290 288 286 285 285 285 285 285 285 285 284 281 279 280 281 279 279 283 288 292 294 295 294 294 295 298 299 299 300 301 301 301 302 302 301 300 299 299 300 301 301 299 298 299 298 296 293 291 290 289 288 288 288 288 288 288 289 289 289 289 289 289 289 288 286 283 281 278 276 274 272 272 272 271 270
318 313 305 304 302 296 291 289 287 285 285 288 289 287 284 283 281 280 280 282 282 280 278 277 278 279 282 288 294 297 299 298 295 293 293 294 295 296 297 298 298 299 299 299 299 299 299 298 299 299 299 298 298 298 296 293 290 287 285 283 282 282 284 285 287 288 288 288 288 289 290 290 291 291 290 287 285 284 282 280 277 275 273 272 271
323 310 292 285 287 289 288 287 286 283 283 286 290 291 290 287 283 279 277 278 279 278 277 276 277 280 285 289 293 295 296 296 293 290 289 290 293 294 295 296 296 296 297 298 300 300 300 300 300 299 298 297 296 296 295 294 291 288 284 281 278 278 280 282 284 286 286 285 286 287 287 288 289 290 289 288 287 285 284 283 281 280 278 276 275
327 317 298 284 280 283 284 283 284 285 284 283 284 287 290 291 289 285 281 279 278 278 278 278 279 282 285 286 287 288 288 288 288 287 287 288 290 292 293 294 294 294 296 299 302 303 302 302 301 300 297 296 294 294 293 293 291 288 283 279 277 277 277 278 280 281 282 282 283 283 283 284 286 286 287 288 288 288 288 287 285 284 282 281 279
332 327 319 308 296 288 284 282 283 283 283 282 282 284 285 286 286 286 285 283 283 283 283 283 284 285 285 285 285 286 286 286 287 288 288 288 289 291 292 293 294 295 298 302 305 305 305 303 302 300 297 295 293 292 291 291 289 287 283 279 277 277 278 278 278 278 277 278 279 280 280 282 284 286 288 290 290 288 286 285 283 282 282 281 279